Regional Weather Roundup
Issued by NWS Jackson, KY

Home | Current Version | Previous Version | Text Only | Print | Product List | Glossary On
Versions: 1 2 3 4 5 6 7 8 9 10 11 12 13 14 15 16 17 18 19 20 21 22 23 24 25 26 27 28 29 30 31 32 33 34 35 36 37 38 39 40 41 42 43 44 45 46 47 48 49 50
000
ASUS43 KJKL 260110
RWRJKL

EAST KENTUCKY HOURLY WEATHER ROUNDUP
NATIONAL WEATHER SERVICE JACKSON KY
900 PM EDT MON MAY 25 2015

NOTE: "FAIR" INDICATES FEW OR NO CLOUDS BELOW 12,000 FEET WITH
NO SIGNIFICANT WEATHER AND/OR OBSTRUCTIONS TO VISIBILITY.

* THESE REPORTS ARE NOT UNDER NWS QUALITY CONTROL AND MAY NOT
  REPORT WEATHER SUCH AS PRECIPITATION AND FOG.

KYZ079-080-083-085-087-088-110-112-115-119-120-260200
...EASTERN KENTUCKY...

CITY           SKY/WX    TMP DP  RH WIND       PRES   REMARKS
JACKSON        PTCLDY    76  60  57 CALM      30.15F
LONDON         CLOUDY    78  59  51 CALM      30.14F
SOMERSET*      CLOUDY    70  63  78 CALM      30.14F
MONTICELLO*    CLOUDY    69  67  93 CALM      30.16F
MIDDLESBORO*   CLOUDY    74  64  69 CALM      30.17F
HARLAN APT*    MOCLDY    73  59  60 CALM      30.18F
HAZARD APT*    CLEAR     77  59  53 S5        30.15F
PIKEVILLE APT* CLEAR     75  63  64 SE5       30.16F
BIG SANDY*     MOCLDY    76  64  66 CALM      30.15F
MOREHEAD APT*  CLOUDY    73  64  73 CALM      30.14F
$$

KYZ035-036-041-042-044-050-067-078-099-260200
...CENTRAL KENTUCKY...

CITY           SKY/WX    TMP DP  RH WIND       PRES   REMARKS
MT STERLING*   CLOUDY    68  68 100 S3        30.15R
FLEMING/MASON* LGT RAIN  72  64  78 SE5       30.12F
DANVILLE*      CLOUDY    68  64  88 CALM      30.13F
RICHMOND*      CLOUDY    70  64  83 S7        30.13F
LEXINGTON      CLOUDY    70  66  87 S8        30.11F
FRANKFORT      CLOUDY    72  63  73 S8        30.09F
$$

KYZ091>093-OHZ055-061-077-WVZ005-015-034-035-042-260200
...SOUTHERN OHIO/WEST VIRGINIA...

CITY           SKY/WX    TMP DP  RH WIND       PRES   REMARKS
COVINGTON      CLOUDY    71  64  78 CALM      30.10S
COLUMBUS       MOCLDY    76  60  57 SW9       30.10R
DAYTON         MOCLDY    73  63  70 SW14G23   30.09S
WILMINGTON     MOCLDY    71  61  70 SW8       30.10F
HUNTINGTON     CLOUDY    75  63  66 CALM      30.12F
CHARLESTON     PTCLDY    76  63  64 CALM      30.13S
PINEVILLE*     CLOUDY    69  63  82 MISG      30.24S
BECKLEY        MOCLDY    72  57  59 SE9       30.24R
BLUEFIELD      PTCLDY    72  56  57 S8        30.28R
$$

VAZ002-007-008-TNZ017-027-036-066-071-260200
...SOUTHWEST VIRGINIA/EAST TENNESSEE...

CITY           SKY/WX    TMP DP  RH WIND       PRES   REMARKS
WISE*          MOCLDY    70  54  56 S3        30.26F
JONESVILLE*    MOCLDY    73  64  73 CALM      30.20F
ABINGDON*      MOCLDY    75  59  58 CALM      30.24R
BRISTOL        CLOUDY    79  58  48 VRB5      30.20S
KNOXVILLE      CLOUDY    79  61  53 SW8       30.17R
OAK RIDGE      LGT RAIN  74  65  73 W10       30.21R
CROSSVILLE     CLOUDY    67  63  87 S6        30.18F
NASHVILLE      MOCLDY    70  67  90 S6        30.11S
$$

...KEY TO REMARKS...
VSB - VISIBILITY IN MILES
WCI - WIND CHILL INDEX
HX  - HEAT INDEX

$$



USA.gov is the U.S. government's official web portal to all federal, state and local government web resources and services.